Location: Casilda
(33.0440°S, 61.1680°W)
Time: 15:16:19
(UTC-03:00)

ISS - Pass Details

Date: 20 June 2021
Orbit: 417 x 422 km, 51.6° (Epoch: 16 June)

Event Time Altitude Azimuth Distance (km) Brightness Sun altitude
Rises 19:18:14 0° 297° (WNW) 2,369 1.9 -14.9°
Reaches altitude 10° 19:20:26 10° 287° (WNW) 1,512 0.5 -15.3°
Maximum altitude 19:23:36 35° 219° (SW) 709 -2.5 -15.9°
Enters shadow 19:25:20 21° 166° (SSE) 1,025 -2.1 -16.3°
